Regional Weather Roundup
Issued by NWS

Home | Current Version | Previous Version | Text Only | Print | Product List | Glossary Off
Versions: 1 2 3 4 5 6 7 8 9 10 11 12 13 14 15 16 17 18 19 20 21 22 23 24 25 26 27 28 29 30 31 32 33 34 35 36 37 38 39 40 41 42 43 44 45 46 47 48 49 50

000
ASUS43 KMKX 192120
RWRWI

WISCONSIN REGIONAL WEATHER ROUNDUP
NATIONAL WEATHER SERVICE MILWAUKEE/SULLIVAN WI
300 PM CST SUN NOV 19 2017

NOTE: "FAIR" INDICATES FEW OR NO CLOUDS BELOW 12,000 FEET WITH NO
SIGNIFICANT WEATHER AND/OR OBSTRUCTIONS TO VISIBILITY.

WIZ001-002-006>008-014>016-023>028-192200-
NORTHWEST WISCONSIN

CITY           SKY/WX    TMP DP  RH WIND       PRES   REMARKS
SUPERIOR ARPT  CLOUDY    27  15  61 SW6       29.89F WCI  20
ASHLAND        LGT SNOW  23  16  74 SW5       29.91F WCI  17
HAYWARD        CLOUDY    28  12  51 SW8       29.88F WCI  20
SIREN          SUNNY     33  15  49 SW8       29.89F WCI  25
CUMBERLAND     SUNNY     32  14  47 SW9       29.88F WCI  24
RICE LAKE      SUNNY     33  17  51 S8        29.91F WCI  26
CHETEK         SUNNY     33  16  49 SW3       29.91F
LADYSMITH      CLOUDY    31  15  51 SW6       29.91F WCI  26
EAU CLAIRE     SUNNY     32  14  47 SW12      29.93F WCI  23
MENOMONIE      SUNNY     33  16  49 S9        29.93F WCI  25
NEW RICHMOND   SUNNY     33  17  50 S7        29.92F WCI  27
OSCEOLA        SUNNY     35  18  49 SW6       29.94F WCI  30
$$

WIZ003>005-009-010-017-018-192200-
NORTH CENTRAL WISCONSIN

CITY           SKY/WX    TMP DP  RH WIND       PRES   REMARKS
MANITOWISH WTR LGT SNOW  21  15  76 W8        29.86S WCI  11
ARBOR VITAE    FLURRIES  24  16  70 W6        29.86F WCI  17
WOODRUFF       FLURRIES  24  16  70 W6        29.86F WCI  17
RHINELANDER    CLOUDY     1 N/A N/A W10       29.87F WCI -15
EAGLE RIVER    CLOUDY    22  12  65 W9        29.85F WCI  12
LAND O LAKES   CLOUDY    22  15  74 W7        29.87S WCI  13
PHILLIPS       CLOUDY    26  11  53 SW5       29.87F WCI  20
TOMAHAWK       CLOUDY    26   8  48 W6        29.89F WCI  19
MEDFORD        CLOUDY    29  14  54 W8        29.89F WCI  21
MERRILL        PTSUNNY   28   9  44 W5        29.90F WCI  23
$$

WIZ029-030-035-036-043>047-192200-
CENTRAL WISCONSIN

CITY           SKY/WX    TMP DP  RH WIND       PRES   REMARKS
WAUSAU         CLOUDY    27  11  51 W9        29.90F WCI  18
MOSINEE        PTSUNNY   28  12  50 W13       29.93F WCI  18
MARSHFIELD     SUNNY     30  13  49 W14       29.91F WCI  19
STEVENS POINT  CLOUDY    29  11  47 W12       29.94F WCI  20
WAUPACA        SUNNY     33   8  34 W9        29.96S WCI  26
WAUTOMA        NOT AVBL
WISC RAPIDS    SUNNY     30  13  49 W8        29.96F WCI  22
CAMP DOUGLAS   MOSUNNY   32  12  43 W8        29.98F WCI  25
$$

WIZ011>013-019>022-031-037>040-048>050-192200-
NORTHEAST WISCONSIN

CITY           SKY/WX    TMP DP  RH WIND       PRES   REMARKS
ANTIGO         CLOUDY    26  10  51 W12       29.89R WCI  16
SHAWANO        MOSUNNY   32   9  39 W8        29.93S WCI  24
OCONTO         SUNNY     29  10  43 W6        29.92S WCI  23
STURGEON BAY   SUNNY     29  13  51 W13       29.92  WCI  19
GREEN BAY      PTSUNNY   32  16  51 W14       29.94S WCI  22
MANITOWOC      MOSUNNY   30  14  51 W14       29.96R WCI  19
APPLETON       MOSUNNY   30   7  37 W13G21    29.93F WCI  20
CLINTONVILLE   PTSUNNY   30   7  37 W9        29.94S WCI  22
OSHKOSH        SUNNY     31  11  43 W8        29.96R WCI  23
$$

WIZ032>034-041-042-053>061-192200-
SOUTHWEST WISCONSIN

CITY           SKY/WX    TMP DP  RH WIND       PRES   REMARKS
LA CROSSE      SUNNY     38  16  40 S7        29.99F WCI  33
SPARTA         PTSUNNY   32  16  51 W6        30.00F WCI  26
VIROQUA        SUNNY     33  20  58 SW10      29.98F WCI  25
BOSCOBEL       SUNNY     37  16  42 SW10      30.04F WCI  30
PRAIRIE DU CHI SUNNY     36  16  44 SW9       30.05S WCI  29
PLATTEVILLE    SUNNY     33  20  58 SW15      30.05S WCI  23
$$

WIZ056-057-062-063-064-067-068-192200-
SOUTH CENTRAL WISCONSIN

CITY           SKY/WX    TMP DP  RH WIND       PRES   REMARKS
REEDSBURG      MOSUNNY   32  16  50 W8        29.99S WCI  25
BARABOO/DELLS  SUNNY     33  15  47 W13       29.99R WCI  24
LONE ROCK      SUNNY     36  17  46 W12       30.03S WCI  28
MINERAL POINT  SUNNY     34  19  55 W15       30.02R WCI  24
MADISON        PTSUNNY   34  16  47 W10       30.01S WCI  26
MIDDLETON      SUNNY     35  17  46 W9        30.01S WCI  28
WATERTOWN      MOSUNNY   31  13  48 W8        29.99S WCI  23
MONROE         SUNNY     34  18  51 W16       30.02S WCI  23
JANESVILLE     PTSUNNY   34  18  51 W12       30.03R WCI  25
$$

WIZ051-052-058>065-066-070>072-192200-
SOUTHEAST WISCONSIN

CITY           SKY/WX    TMP DP  RH WIND       PRES   REMARKS
MILWAUKEE      PTSUNNY   34  12  40 W9G20     29.99S WCI  27
WAUKESHA       SUNNY     28  12  50 W12G21    30.00R WCI  18
MILWAUKEE/TIMM SUNNY     30   9  40 W14       30.00S WCI  20
RACINE         MOSUNNY   34  14  43 W14G22    30.01S WCI  25
BURLINGTON     SUNNY     34  19  54 W12G18    30.01R WCI  25
KENOSHA        SUNNY     34  15  46 W15       30.00F WCI  24
FOND DU LAC    SUNNY     32   9  38 W13       29.97S WCI  22
SHEBOYGAN      SUNNY     31  13  47 W13       29.96R WCI  21
WEST BEND      SUNNY     30  10  43 W14G21    29.97S WCI  20
JUNEAU         MOSUNNY   30  11  45 W8        30.00R WCI  23
$$

LSZ147-162-192200-
LAKE SUPERIOR

STATION/POSITION TIME  TEMP    WIND        PRES    WAVE
                       AIR SEA DIR/SP/G            HT/PER
                 (UTC) (F)     (DEG/KT/KT) (MB)    (FT/S)
DEVILS ISLAND    2100   26     250/ 17/ 20 1012.6F
SAXON HARBOR     2040   25     220/ 10/ 15 1012.5S
$$

LMZ867-665-643>646-192200-
LAKE MICHIGAN

STATION/POSITION TIME  TEMP    WIND        PRES    WAVE
                       AIR SEA DIR/SP/G            HT/PER
                 (UTC) (F)     (DEG/KT/KT) (MB)    (FT/S)
N MID LAKE BUOY  2050   28 48  280/ 16/ 23 1013.4R   3/ 4
NORTHPORT PIER   2040   29     290/  4/ 10 1012.9F
KEWAUNEE LAKESHO 2054   30     280/ 11/ 16 1012.9F
SHEBOYGAN LAKESH 2100   31     270/ 15/ 17 1015.3R
PORT WASHINGTON  2040   32     300/ 10/ 17 1015.9S
MILWAUKEE LAKESH 2100   32     270/ 10/ 12   N/A
S MID LAKE BUOY  2050   33 49  310/ 16/ 19 1016.1F   5/ 7
KENOSHA   LAKESH 2100   33     290/ 12/ 14 1016.3
$$

TC  - TEMPERATURE IN CELSIUS
VSB - VISIBILITY IN STATUTE MILES
WCI - WIND CHILL INDEX
HX  - HEAT INDEX




USA.gov is the U.S. government's official web portal to all federal, state and local government web resources and services.